Hillsdale, MI

10:43 PM EDT on September 28, 2016 (GMT -0400)
Hillsdale Municipal

Weather History for KJYM - November, 2012

Change the Weather History Date:

Sunday, November 11, 2012

  Actual Average Record
Temperature  
Mean Temperature 59 °F -  
Max Temperature 68 °F 46 °F 70 °F (1964)
Min Temperature 51 °F 29 °F 17 °F (1950)
Degree Days  
Heating Degree Days 6    
Growing Degree Days 9 (Base 50)    
Moisture  
Dew Point 42 °F    
Average Humidity 55    
Maximum Humidity 68    
Minimum Humidity 41    
Precipitation  
Precipitation 0.00 in - - ()
Sea Level Pressure  
Sea Level Pressure 30.03 in    
Wind  
Wind Speed 12 mph (South)    
Max Wind Speed 22 mph    
Max Gust Speed 32 mph    
Visibility 10 miles    
Events      
Averages and records for this station are not official NWS values.
T = Trace of Precipitation, MM = Missing Value Source: NWS Daily Summary

Daily Weather History Graph

Daily Weather History Graph

Search for Another Location

Airport or City:

Trip Planner

Search our weather history database for the weather conditions in past years. The results will help you decide how hot, cold, wet, or windy it might be!

Date:

Astronomy

Nov. 11, 2012 Rise Set
Actual Time 7:23 AM EST 5:20 PM EST
Civil Twilight 6:54 AM EST 5:50 PM EST
Nautical Twilight 6:20 AM EST 6:23 PM EST
Astronomical Twilight 5:47 AM EST 6:56 PM EST
Moon 4:34 AM EST (11/11) 3:45 PM EST (11/11)
Length of Visible Light 10h 56m
Length of Day
9h 56m
Waning Crescent, 7% of the Moon is Illuminated
Nov 11
Waning Crescent
Nov 13
New
Nov 20
First Quarter
Nov 28
Full
Dec 6
Last Quarter

Hourly Weather History & Observations

Time (EST) Temp. Dew Point Humidity Pressure Visibility Wind Dir Wind Speed Gust Speed Precip Events Conditions
12:15 AM 57.2 °F 45.0 °F 64% 30.05 in 10.0 mi South 10.4 mph - N/A   Clear
12:34 AM 56.7 °F 45.0 °F 65% 30.05 in 10.0 mi South 10.4 mph - N/A   Clear
12:54 AM 55.8 °F 44.6 °F 66% 30.05 in 10.0 mi South 10.4 mph - N/A   Clear
1:15 AM 55.6 °F 44.4 °F 66% 30.05 in 10.0 mi South 9.2 mph 17.3 mph N/A   Clear
1:35 AM 55.6 °F 44.2 °F 66% 30.05 in 10.0 mi South 9.2 mph - N/A   Clear
1:54 AM 55.2 °F 43.9 °F 66% 30.06 in 10.0 mi SSW 10.4 mph - N/A   Clear
2:15 AM 55.2 °F 43.7 °F 65% 30.06 in 10.0 mi South 9.2 mph - N/A   Clear
2:35 AM 54.9 °F 43.3 °F 65% 30.07 in 10.0 mi South 8.1 mph - N/A   Clear
2:55 AM 54.3 °F 43.3 °F 66% 30.07 in 10.0 mi South 8.1 mph - N/A   Clear
3:15 AM 54.3 °F 43.2 °F 66% 30.08 in 10.0 mi South 6.9 mph - N/A   Clear
3:34 AM 53.6 °F 43.2 °F 68% 30.08 in 10.0 mi South 8.1 mph - N/A   Clear
3:55 AM 53.4 °F 43.0 °F 68% 30.08 in 10.0 mi South 9.2 mph - N/A   Clear
4:14 AM 53.8 °F 43.0 °F 67% 30.08 in 10.0 mi South 6.9 mph - N/A   Clear
4:35 AM 54.0 °F 42.8 °F 66% 30.09 in 10.0 mi South 8.1 mph - N/A   Clear
4:55 AM 54.0 °F 42.6 °F 65% 30.09 in 10.0 mi South 9.2 mph - N/A   Clear
5:14 AM 53.8 °F 42.3 °F 65% 30.10 in 10.0 mi South 8.1 mph - N/A   Clear
5:34 AM 53.4 °F 42.3 °F 66% 30.10 in 10.0 mi South 9.2 mph - N/A   Clear
5:55 AM 53.1 °F 42.1 °F 66% 30.11 in 10.0 mi South 8.1 mph - N/A   Clear
6:35 AM 52.0 °F 41.5 °F 68% 30.11 in 10.0 mi South 10.4 mph - N/A   Clear
6:54 AM 52.2 °F 41.2 °F 66% 30.11 in 10.0 mi South 10.4 mph - N/A   Clear
7:14 AM 52.0 °F 41.0 °F 66% 30.11 in 10.0 mi South 10.4 mph - N/A   Clear
7:35 AM 51.3 °F 40.6 °F 67% 30.11 in 10.0 mi South 9.2 mph - N/A   Clear
7:54 AM 51.6 °F 40.8 °F 67% 30.11 in 10.0 mi South 10.4 mph 16.1 mph N/A   Clear
8:35 AM 53.1 °F 41.2 °F 64% 30.12 in 10.0 mi South 10.4 mph 17.3 mph N/A   Clear
9:15 AM 54.9 °F 41.4 °F 60% 30.11 in 10.0 mi South 13.8 mph 20.7 mph N/A   Clear
9:34 AM 55.8 °F 41.7 °F 59% 30.11 in 10.0 mi South 15.0 mph 20.7 mph N/A   Clear
9:54 AM 57.2 °F 42.4 °F 58% 30.11 in 10.0 mi SSW 16.1 mph 24.2 mph N/A   Clear
10:34 AM 59.4 °F 43.0 °F 55% 30.11 in 10.0 mi South 17.3 mph 23.0 mph N/A   Clear
10:54 AM 59.0 °F 43.2 °F 56% 30.11 in 10.0 mi SSW 16.1 mph 23.0 mph N/A   Clear
11:15 AM 61.0 °F 44.1 °F 54% 30.10 in 10.0 mi South 15.0 mph 24.2 mph N/A   Clear
11:34 AM 62.1 °F 44.6 °F 53% 30.09 in 10.0 mi South 17.3 mph 24.2 mph N/A   Clear
11:55 AM 63.5 °F 45.0 °F 51% 30.08 in 10.0 mi South 20.7 mph 27.6 mph N/A   Clear
12:15 PM 62.8 °F 45.0 °F 52% 30.06 in 10.0 mi South 15.0 mph 31.1 mph N/A   Clear
12:34 PM 61.5 °F 45.0 °F 55% 30.06 in 10.0 mi South 19.6 mph 25.3 mph N/A   Clear
1:15 PM 66.4 °F 46.4 °F 49% 30.03 in 10.0 mi South 16.1 mph 26.5 mph N/A   Clear
1:34 PM 67.3 °F 46.8 °F 48% 30.03 in 10.0 mi SSW 17.3 mph 31.1 mph N/A   Clear
1:55 PM 67.8 °F 46.8 °F 47% 30.02 in 10.0 mi SSW 18.4 mph 25.3 mph N/A   Clear
2:14 PM 67.6 °F 46.6 °F 47% 30.02 in 10.0 mi South 18.4 mph 28.8 mph N/A   Clear
2:34 PM 67.6 °F 46.4 °F 46% 30.01 in 10.0 mi SSW 21.9 mph 28.8 mph N/A   Clear
3:14 PM 66.6 °F 45.9 °F 47% 30.00 in 10.0 mi South 15.0 mph 27.6 mph N/A   Clear
3:34 PM 67.3 °F 46.2 °F 47% 29.99 in 10.0 mi South 16.1 mph 25.3 mph N/A   Clear
3:55 PM 67.1 °F 46.0 °F 47% 30.00 in 10.0 mi South 19.6 mph 27.6 mph N/A   Clear
4:14 PM 66.4 °F 45.0 °F 46% 30.00 in 10.0 mi South 17.3 mph 32.2 mph N/A   Clear
4:35 PM 65.1 °F 44.8 °F 48% 30.00 in 10.0 mi South 12.7 mph 26.5 mph N/A   Clear
4:55 PM 64.2 °F 44.4 °F 49% 29.98 in 10.0 mi South 12.7 mph 25.3 mph N/A   Clear
5:14 PM 63.7 °F 44.1 °F 49% 29.98 in 10.0 mi South 16.1 mph 24.2 mph N/A   Clear
5:34 PM 62.6 °F 44.8 °F 52% 29.98 in 10.0 mi South 16.1 mph 24.2 mph N/A   Clear
5:55 PM 61.9 °F 45.1 °F 54% 29.98 in 10.0 mi South 16.1 mph 29.9 mph N/A   Clear
6:14 PM 61.2 °F 45.1 °F 56% 29.98 in 10.0 mi South 18.4 mph 23.0 mph N/A   Clear
6:34 PM 61.2 °F 43.9 °F 53% 29.98 in 10.0 mi South 16.1 mph 31.1 mph N/A   Clear
6:54 PM 60.8 °F 42.4 °F 51% 29.98 in 10.0 mi South 12.7 mph 24.2 mph N/A   Clear
7:14 PM 60.3 °F 40.5 °F 48% 29.98 in 10.0 mi South 16.1 mph 21.9 mph N/A   Clear
7:35 PM 59.7 °F 39.2 °F 47% 29.97 in 10.0 mi South 16.1 mph 20.7 mph N/A   Clear
7:55 PM 59.7 °F 37.8 °F 44% 29.96 in 10.0 mi South 16.1 mph 24.2 mph N/A   Clear
8:14 PM 59.5 °F 37.0 °F 43% 29.96 in 10.0 mi South 13.8 mph 21.9 mph N/A   Clear
8:34 PM 59.0 °F 37.0 °F 44% 29.97 in 10.0 mi South 11.5 mph 24.2 mph N/A   Clear
8:55 PM 59.4 °F 36.1 °F 42% 29.96 in 10.0 mi South 16.1 mph 23.0 mph N/A   Scattered Clouds
9:15 PM 60.1 °F 36.0 °F 41% 29.98 in 10.0 mi South 18.4 mph 23.0 mph N/A   Mostly Cloudy
9:35 PM 59.4 °F 35.8 °F 41% 29.97 in 10.0 mi South 12.7 mph 23.0 mph N/A   Scattered Clouds
9:54 PM 59.4 °F 36.0 °F 42% 29.98 in 10.0 mi South 17.3 mph 23.0 mph N/A   Mostly Cloudy
10:15 PM 59.4 °F 36.0 °F 42% 29.96 in 10.0 mi South 16.1 mph 23.0 mph N/A   Overcast
10:35 PM 58.6 °F 36.3 °F 43% 29.95 in 10.0 mi South 15.0 mph 21.9 mph N/A   Scattered Clouds
10:54 PM 59.7 °F 37.2 °F 43% 29.94 in 10.0 mi South 15.0 mph 24.2 mph N/A   Mostly Cloudy
11:14 PM 59.9 °F 37.9 °F 44% 29.94 in 10.0 mi South 16.1 mph 26.5 mph N/A   Mostly Cloudy
11:34 PM 60.1 °F 39.0 °F 46% 29.93 in 10.0 mi South 15.0 mph 27.6 mph N/A   Mostly Cloudy
11:55 PM 60.1 °F 39.7 °F 47% 29.94 in 10.0 mi South 18.4 mph 25.3 mph N/A   Overcast